Year,Month,Day,Hour,Minute,Value (Times are PST for insolation in W/m^2)
2009,02,25,00,00,0.00
2009,02,25,00,01,0.00
2009,02,25,00,02,0.00
2009,02,25,00,03,0.00
2009,02,25,00,04,0.00
2009,02,25,00,05,0.00
2009,02,25,00,06,0.00
2009,02,25,00,07,0.00
2009,02,25,00,08,0.00
2009,02,25,00,09,0.00
2009,02,25,00,10,0.00
2009,02,25,00,11,0.00
2009,02,25,00,12,0.00
2009,02,25,01,02,0.00
2009,02,25,01,03,0.00
2009,02,25,01,04,0.00
2009,02,25,01,05,0.00
2009,02,25,01,06,0.00
2009,02,25,01,07,0.00
2009,02,25,01,08,0.00
2009,02,25,01,09,0.00
2009,02,25,01,10,0.00
2009,02,25,01,11,0.00
2009,02,25,01,12,0.00
2009,02,25,01,13,0.00
2009,02,25,01,14,0.00
2009,02,25,01,15,0.00
2009,02,25,01,16,0.00
2009,02,25,01,17,0.00
2009,02,25,01,18,0.00
2009,02,25,01,19,0.00
2009,02,25,01,20,0.00
2009,02,25,01,21,0.00
2009,02,25,01,22,0.00
2009,02,25,01,23,0.00
2009,02,25,01,24,0.00
2009,02,25,01,25,0.00
2009,02,25,01,26,0.00
2009,02,25,01,27,0.00
2009,02,25,01,28,0.00
2009,02,25,01,29,0.00
2009,02,25,01,30,0.00
2009,02,25,01,31,0.00
2009,02,25,01,32,0.00
2009,02,25,01,33,0.00
2009,02,25,01,34,0.00
2009,02,25,01,35,0.00
2009,02,25,01,36,0.00
2009,02,25,01,37,0.00
2009,02,25,01,38,0.00
2009,02,25,01,39,0.00
2009,02,25,01,40,0.00
2009,02,25,01,41,0.00
2009,02,25,01,42,0.00
2009,02,25,01,43,0.00
2009,02,25,01,44,0.00
2009,02,25,01,45,0.00
2009,02,25,01,46,0.00
2009,02,25,01,47,0.00
2009,02,25,01,48,0.00
2009,02,25,01,49,0.00
2009,02,25,01,50,0.00
2009,02,25,01,51,0.00
2009,02,25,01,52,0.00
2009,02,25,01,53,0.00
2009,02,25,01,54,0.00
2009,02,25,01,55,0.00
2009,02,25,01,56,0.00
2009,02,25,01,57,0.00
2009,02,25,01,58,0.00
2009,02,25,01,59,0.00
2009,02,25,02,00,0.00
2009,02,25,02,01,0.00
2009,02,25,02,02,0.00
2009,02,25,02,03,0.00
2009,02,25,02,04,0.00
2009,02,25,02,05,0.00
2009,02,25,02,06,0.00
2009,02,25,02,07,0.00
2009,02,25,02,08,0.00
2009,02,25,02,09,0.00
2009,02,25,02,10,0.00
2009,02,25,02,11,0.00
2009,02,25,02,12,0.00
2009,02,25,02,13,0.00
2009,02,25,02,14,0.00
2009,02,25,02,15,0.00
2009,02,25,02,16,0.00
2009,02,25,02,17,0.00
2009,02,25,02,18,0.00
2009,02,25,02,19,0.00
2009,02,25,02,20,0.00
2009,02,25,02,21,0.00
2009,02,25,02,22,0.00
2009,02,25,02,23,0.00
2009,02,25,02,24,0.00
2009,02,25,02,25,0.00
2009,02,25,02,26,0.00
2009,02,25,02,27,0.00
2009,02,25,02,28,0.00
2009,02,25,02,29,0.00
2009,02,25,02,30,0.00
2009,02,25,02,31,0.00
2009,02,25,02,32,0.00
2009,02,25,02,33,0.00
2009,02,25,02,34,0.00
2009,02,25,02,35,0.00
2009,02,25,02,36,0.00
2009,02,25,02,37,0.00
2009,02,25,02,38,0.00
2009,02,25,02,39,0.00
2009,02,25,02,40,0.00
2009,02,25,02,41,0.00
2009,02,25,02,42,0.00
2009,02,25,02,43,0.00
2009,02,25,02,44,0.00
2009,02,25,02,45,0.00
2009,02,25,02,46,0.00
2009,02,25,02,47,0.00
2009,02,25,02,48,0.00
2009,02,25,02,49,0.00
2009,02,25,02,50,0.00
2009,02,25,02,51,0.00
2009,02,25,02,52,0.00
2009,02,25,02,53,0.00
2009,02,25,02,54,0.00
2009,02,25,02,55,0.00
2009,02,25,02,56,0.00
2009,02,25,02,57,0.00
2009,02,25,02,58,0.00
2009,02,25,02,59,0.00
2009,02,25,03,00,0.00
2009,02,25,03,01,0.00
2009,02,25,03,02,0.00
2009,02,25,03,03,0.00
2009,02,25,03,04,0.00
2009,02,25,03,05,0.00
2009,02,25,03,06,0.00
2009,02,25,03,07,0.00
2009,02,25,03,08,0.00
2009,02,25,03,09,0.00
2009,02,25,03,10,0.00
2009,02,25,03,11,0.00
2009,02,25,03,12,0.00
2009,02,25,03,13,0.00
2009,02,25,03,14,0.00
2009,02,25,03,15,0.00
2009,02,25,03,16,0.00
2009,02,25,03,17,0.00
2009,02,25,03,18,0.00
2009,02,25,03,19,0.00
2009,02,25,03,20,0.00
2009,02,25,03,21,0.00
2009,02,25,03,22,0.00
2009,02,25,03,23,0.00
2009,02,25,03,24,0.00
2009,02,25,03,25,0.00
2009,02,25,03,26,0.00
2009,02,25,03,27,0.00
2009,02,25,03,28,0.00
2009,02,25,03,29,0.00
2009,02,25,03,30,0.00
2009,02,25,03,31,0.00
2009,02,25,03,32,0.00
2009,02,25,03,33,0.00
2009,02,25,03,34,0.00
2009,02,25,03,35,0.00
2009,02,25,03,36,0.00
2009,02,25,03,37,0.00
2009,02,25,03,38,0.00
2009,02,25,03,39,0.00
2009,02,25,03,40,0.00
2009,02,25,03,41,0.00
2009,02,25,03,42,0.00
2009,02,25,03,43,0.00
2009,02,25,03,44,0.00
2009,02,25,03,45,0.00
2009,02,25,03,46,0.00
2009,02,25,03,47,0.00
2009,02,25,03,48,0.00
2009,02,25,03,49,0.00
2009,02,25,03,50,0.00
2009,02,25,03,51,0.00
2009,02,25,03,52,0.00
2009,02,25,03,53,0.00
2009,02,25,03,54,0.00
2009,02,25,03,55,0.00
2009,02,25,03,56,0.00
2009,02,25,03,57,0.00
2009,02,25,03,58,0.00
2009,02,25,03,59,0.00
2009,02,25,04,00,0.00
2009,02,25,04,01,0.00
2009,02,25,04,02,0.00
2009,02,25,04,03,0.00
2009,02,25,04,04,0.00
2009,02,25,04,05,0.00
2009,02,25,04,06,0.00
2009,02,25,04,07,0.00
2009,02,25,04,08,0.00
2009,02,25,04,09,0.00
2009,02,25,04,10,0.00
2009,02,25,04,11,0.00
2009,02,25,04,12,0.00
2009,02,25,04,13,0.00
2009,02,25,04,14,0.00
2009,02,25,04,15,0.00
2009,02,25,04,16,0.00
2009,02,25,04,17,0.00
2009,02,25,04,18,0.00
2009,02,25,04,19,0.00
2009,02,25,04,20,0.00
2009,02,25,04,21,0.00
2009,02,25,04,22,0.00
2009,02,25,04,23,0.00
2009,02,25,04,24,0.00
2009,02,25,04,25,0.00
2009,02,25,04,26,0.00
2009,02,25,04,27,0.00
2009,02,25,04,28,0.00
2009,02,25,04,29,0.00
2009,02,25,04,30,0.00
2009,02,25,04,31,0.00
2009,02,25,04,32,0.00
2009,02,25,04,33,0.00
2009,02,25,04,34,0.00
2009,02,25,04,35,0.00
2009,02,25,04,36,0.00
2009,02,25,04,37,0.00
2009,02,25,04,38,0.00
2009,02,25,04,39,0.00
2009,02,25,04,40,0.00
2009,02,25,04,41,0.00
2009,02,25,04,42,0.00
2009,02,25,04,43,0.00
2009,02,25,04,44,0.00
2009,02,25,04,45,0.00
2009,02,25,04,46,0.00
2009,02,25,04,47,0.00
2009,02,25,04,48,0.00
2009,02,25,04,49,0.00
2009,02,25,04,50,0.00
2009,02,25,04,51,0.00
2009,02,25,04,52,0.00
2009,02,25,04,53,0.00
2009,02,25,04,54,0.00
2009,02,25,04,55,0.00
2009,02,25,04,56,0.00
2009,02,25,04,57,0.00
2009,02,25,04,58,0.00
2009,02,25,04,59,0.00
2009,02,25,05,00,0.00
2009,02,25,05,01,0.00
2009,02,25,05,02,0.00
2009,02,25,05,03,0.00
2009,02,25,05,04,0.00
2009,02,25,05,05,0.00
2009,02,25,05,06,0.00
2009,02,25,05,07,0.00
2009,02,25,05,08,0.00
2009,02,25,05,09,0.00
2009,02,25,05,10,0.00
2009,02,25,05,11,0.00
2009,02,25,05,12,0.00
2009,02,25,05,13,0.00
2009,02,25,05,14,0.00
2009,02,25,05,15,0.00
2009,02,25,05,16,0.00
2009,02,25,05,17,0.00
2009,02,25,05,18,0.00
2009,02,25,05,19,0.00
2009,02,25,05,20,0.00
2009,02,25,05,21,0.00
2009,02,25,05,22,0.00
2009,02,25,05,23,0.00
2009,02,25,05,24,0.00
2009,02,25,05,25,0.00
2009,02,25,05,26,0.00
2009,02,25,05,27,0.00
2009,02,25,05,28,0.00
2009,02,25,05,29,0.00
2009,02,25,05,30,0.00
2009,02,25,05,31,0.00
2009,02,25,05,32,0.00
2009,02,25,05,33,0.00
2009,02,25,05,34,0.00
2009,02,25,05,35,0.00
2009,02,25,05,36,0.00
2009,02,25,05,37,0.00
2009,02,25,05,38,0.00
2009,02,25,05,39,0.00
2009,02,25,05,40,0.00
2009,02,25,05,41,0.00
2009,02,25,05,42,0.00
2009,02,25,05,43,0.00
2009,02,25,05,44,0.00
2009,02,25,05,45,0.00
2009,02,25,05,46,0.00
2009,02,25,05,47,0.00
2009,02,25,05,48,0.00
2009,02,25,05,49,0.00
2009,02,25,05,50,0.00
2009,02,25,05,51,0.00
2009,02,25,05,52,0.00
2009,02,25,05,53,0.00
2009,02,25,05,54,0.00
2009,02,25,05,55,0.00
2009,02,25,05,56,0.00
2009,02,25,05,57,0.00
2009,02,25,05,58,0.00
2009,02,25,05,59,0.00
2009,02,25,06,00,0.00
2009,02,25,06,01,0.00
2009,02,25,06,02,0.00
2009,02,25,06,03,0.00
2009,02,25,06,04,0.00
2009,02,25,06,05,0.00
2009,02,25,06,06,0.00
2009,02,25,06,07,0.00
2009,02,25,06,08,0.00
2009,02,25,06,09,0.00
2009,02,25,06,10,0.00
2009,02,25,06,11,0.00
2009,02,25,06,12,0.00
2009,02,25,06,13,0.00
2009,02,25,06,14,0.00
2009,02,25,06,15,0.00
2009,02,25,06,16,0.00
2009,02,25,06,17,0.00
2009,02,25,06,18,0.00
2009,02,25,06,19,0.00
2009,02,25,06,20,0.00
2009,02,25,06,21,0.00
2009,02,25,06,22,0.00
2009,02,25,06,23,0.00
2009,02,25,06,24,0.00
2009,02,25,06,25,0.00
2009,02,25,06,26,0.00
2009,02,25,06,27,0.00
2009,02,25,06,28,0.00
2009,02,25,06,29,0.00
2009,02,25,06,30,0.00
2009,02,25,06,31,0.00
2009,02,25,06,32,0.00
2009,02,25,06,33,0.00
2009,02,25,06,34,0.00
2009,02,25,06,35,0.00
2009,02,25,06,36,0.00
2009,02,25,06,37,0.00
2009,02,25,06,38,0.00
2009,02,25,06,39,0.00
2009,02,25,06,40,0.00
2009,02,25,06,41,0.00
2009,02,25,06,42,0.00
2009,02,25,06,43,0.00
2009,02,25,06,44,0.00
2009,02,25,06,45,0.00
2009,02,25,06,46,0.00
2009,02,25,06,47,0.00
2009,02,25,06,48,0.00
2009,02,25,06,49,0.00
2009,02,25,06,50,0.00
2009,02,25,06,51,0.00
2009,02,25,06,52,0.00
2009,02,25,06,53,0.00
2009,02,25,06,54,0.00
2009,02,25,06,55,0.00
2009,02,25,06,56,0.00
2009,02,25,06,57,0.00
2009,02,25,06,58,0.00
2009,02,25,06,59,0.00
2009,02,25,07,00,0.00
2009,02,25,07,01,0.00
2009,02,25,07,02,0.00
2009,02,25,07,03,0.00
2009,02,25,07,04,0.00
2009,02,25,07,05,0.00
2009,02,25,07,06,0.00
2009,02,25,07,07,0.00
2009,02,25,07,08,0.00
2009,02,25,07,09,0.00
2009,02,25,07,10,0.00
2009,02,25,07,11,0.00
2009,02,25,07,12,0.00
2009,02,25,07,13,0.00
2009,02,25,07,14,0.00
2009,02,25,07,15,0.00
2009,02,25,07,16,0.00
2009,02,25,07,17,0.00
2009,02,25,07,18,0.00
2009,02,25,07,19,0.00
2009,02,25,07,20,0.00
2009,02,25,07,21,0.00
2009,02,25,07,22,0.00
2009,02,25,07,23,0.00
2009,02,25,07,24,0.00
2009,02,25,07,25,0.00
2009,02,25,07,26,0.00
2009,02,25,07,27,0.00
2009,02,25,07,28,0.00
2009,02,25,07,29,0.00
2009,02,25,07,30,0.00
2009,02,25,07,31,0.00
2009,02,25,07,32,0.00
2009,02,25,07,33,0.00
2009,02,25,07,34,0.00
2009,02,25,07,35,0.00
2009,02,25,07,36,0.00
2009,02,25,07,37,0.00
2009,02,25,07,38,0.00
2009,02,25,07,39,0.00
2009,02,25,07,40,0.00
2009,02,25,07,41,0.00
2009,02,25,07,42,0.00
2009,02,25,07,43,0.00
2009,02,25,07,44,0.00
2009,02,25,07,45,0.00
2009,02,25,07,46,0.00
2009,02,25,07,47,0.00
2009,02,25,07,48,0.00
2009,02,25,07,49,3.20
2009,02,25,07,50,5.00
2009,02,25,07,51,5.00
2009,02,25,07,52,5.00
2009,02,25,07,53,5.00
2009,02,25,07,54,5.00
2009,02,25,07,55,5.00
2009,02,25,07,56,7.00
2009,02,25,07,57,6.90
2009,02,25,07,58,5.00
2009,02,25,07,59,5.30
2009,02,25,08,00,7.00
2009,02,25,08,01,7.00
2009,02,25,08,02,7.00
2009,02,25,08,03,7.00
2009,02,25,08,04,7.00
2009,02,25,08,05,7.80
2009,02,25,08,06,9.00
2009,02,25,08,07,9.00
2009,02,25,08,08,9.00
2009,02,25,08,09,9.00
2009,02,25,08,10,9.00
2009,02,25,08,11,9.00
2009,02,25,08,12,9.00
2009,02,25,08,13,9.00
2009,02,25,08,14,9.00
2009,02,25,08,15,7.30
2009,02,25,08,16,7.00
2009,02,25,08,17,7.00
2009,02,25,08,18,8.80
2009,02,25,08,19,9.00
2009,02,25,08,20,11.10
2009,02,25,08,21,12.00
2009,02,25,08,22,12.30
2009,02,25,08,23,14.00
2009,02,25,08,24,14.40
2009,02,25,08,25,16.00
2009,02,25,08,26,15.40
2009,02,25,08,27,14.00
2009,02,25,08,28,14.00
2009,02,25,08,29,14.90
2009,02,25,08,30,17.40
2009,02,25,08,31,20.00
2009,02,25,08,32,21.00
2009,02,25,08,33,22.20
2009,02,25,08,34,23.00
2009,02,25,08,35,21.70
2009,02,25,08,36,19.50
2009,02,25,08,37,19.00
2009,02,25,08,38,19.00
2009,02,25,08,39,19.00
2009,02,25,08,40,19.00
2009,02,25,08,41,19.00
2009,02,25,08,42,19.00
2009,02,25,08,43,18.90
2009,02,25,08,44,18.00
2009,02,25,08,45,18.10
2009,02,25,08,46,19.60
2009,02,25,08,47,24.30
2009,02,25,08,48,28.90
2009,02,25,08,49,32.80
2009,02,25,08,50,36.50
2009,02,25,08,51,39.40
2009,02,25,08,52,42.40
2009,02,25,08,53,49.20
2009,02,25,08,54,57.70
2009,02,25,08,55,67.80
2009,02,25,08,56,77.50
2009,02,25,08,57,82.90
2009,02,25,08,58,82.10
2009,02,25,08,59,81.00
2009,02,25,09,00,82.60
2009,02,25,09,01,83.80
2009,02,25,09,02,85.60
2009,02,25,09,03,86.00
2009,02,25,09,04,86.00
2009,02,25,09,05,83.10
2009,02,25,09,06,80.90
2009,02,25,09,07,78.70
2009,02,25,09,08,76.00
2009,02,25,09,09,75.10
2009,02,25,09,10,70.40
2009,02,25,09,11,73.30
2009,02,25,09,12,78.70
2009,02,25,09,13,84.80
2009,02,25,09,14,87.30
2009,02,25,09,15,84.80
2009,02,25,09,16,84.30
2009,02,25,09,17,90.50
2009,02,25,09,18,98.90
2009,02,25,09,19,104.80
2009,02,25,09,20,105.80
2009,02,25,09,21,95.90
2009,02,25,09,22,80.70
2009,02,25,09,23,71.60
2009,02,25,09,24,69.20
2009,02,25,09,25,69.00
2009,02,25,09,26,67.30
2009,02,25,09,27,68.90
2009,02,25,09,28,69.00
2009,02,25,09,29,66.70
2009,02,25,09,30,59.90
2009,02,25,09,31,58.00
2009,02,25,09,32,59.80
2009,02,25,09,33,70.40
2009,02,25,09,34,79.90
2009,02,25,09,35,108.60
2009,02,25,09,36,123.00
2009,02,25,09,37,127.80
2009,02,25,09,38,141.70
2009,02,25,09,39,144.00
2009,02,25,09,40,122.00
2009,02,25,09,41,104.10
2009,02,25,09,42,104.90
2009,02,25,09,43,114.20
2009,02,25,09,44,114.50
2009,02,25,09,45,113.00
2009,02,25,09,46,124.80
2009,02,25,09,47,139.80
2009,02,25,09,48,141.10
2009,02,25,09,49,128.70
2009,02,25,09,50,128.00
2009,02,25,09,51,135.00
2009,02,25,09,52,161.70
2009,02,25,09,53,189.70
2009,02,25,09,54,159.20
2009,02,25,09,55,142.00
2009,02,25,09,56,129.60
2009,02,25,09,57,120.00
2009,02,25,09,58,108.90
2009,02,25,09,59,78.10
2009,02,25,10,00,63.50
2009,02,25,10,01,53.90
2009,02,25,10,02,50.10
2009,02,25,10,03,48.00
2009,02,25,10,04,46.40
2009,02,25,10,05,46.00
2009,02,25,10,06,46.70
2009,02,25,10,07,47.00
2009,02,25,10,08,47.00
2009,02,25,10,09,51.70
2009,02,25,10,10,58.80
2009,02,25,10,11,61.60
2009,02,25,10,12,62.00
2009,02,25,10,13,62.90
2009,02,25,10,14,65.00
2009,02,25,10,15,69.80
2009,02,25,10,16,66.50
2009,02,25,10,17,57.30
2009,02,25,10,18,50.70
2009,02,25,10,19,50.00
2009,02,25,10,20,54.00
2009,02,25,10,21,57.90
2009,02,25,10,22,69.80
2009,02,25,10,23,73.10
2009,02,25,10,24,67.30
2009,02,25,10,25,63.70
2009,02,25,10,26,62.00
2009,02,25,10,27,60.80
2009,02,25,10,28,64.20
2009,02,25,10,29,74.80
2009,02,25,10,30,84.20
2009,02,25,10,31,75.70
2009,02,25,10,32,66.50
2009,02,25,10,33,62.50
2009,02,25,10,34,62.90
2009,02,25,10,35,64.70
2009,02,25,10,36,58.40
2009,02,25,10,37,62.00
2009,02,25,10,38,60.10
2009,02,25,10,39,62.00
2009,02,25,10,40,61.60
2009,02,25,10,41,59.10
2009,02,25,10,42,64.30
2009,02,25,10,43,68.50
2009,02,25,10,44,67.60
2009,02,25,10,45,72.20
2009,02,25,10,46,81.80
2009,02,25,10,47,85.10
2009,02,25,10,48,81.80
2009,02,25,10,49,77.90
2009,02,25,10,50,75.30
2009,02,25,10,51,69.10
2009,02,25,10,52,60.20
2009,02,25,10,53,51.80
2009,02,25,10,54,42.40
2009,02,25,10,55,34.50
2009,02,25,10,56,29.20
2009,02,25,10,57,25.30
2009,02,25,10,58,23.30
2009,02,25,10,59,23.00
2009,02,25,11,00,25.00
2009,02,25,11,01,20.90
2009,02,25,11,02,18.90
2009,02,25,11,03,18.00
2009,02,25,11,04,18.00
2009,02,25,11,05,18.00
2009,02,25,11,06,18.00
2009,02,25,11,07,18.90
2009,02,25,11,08,21.60
2009,02,25,11,09,23.00
2009,02,25,11,10,23.00
2009,02,25,11,11,23.00
2009,02,25,11,12,23.00
2009,02,25,11,13,23.00
2009,02,25,11,14,23.00
2009,02,25,11,15,23.00
2009,02,25,11,16,25.10
2009,02,25,11,17,28.90
2009,02,25,11,18,32.40
2009,02,25,11,19,33.00
2009,02,25,11,20,32.10
2009,02,25,11,21,32.90
2009,02,25,11,22,33.00
2009,02,25,11,23,34.90
2009,02,25,11,24,39.30
2009,02,25,11,25,46.50
2009,02,25,11,26,51.20
2009,02,25,11,27,53.20
2009,02,25,11,28,53.80
2009,02,25,11,29,52.60
2009,02,25,11,30,49.80
2009,02,25,11,31,47.00
2009,02,25,11,32,46.60
2009,02,25,11,33,46.00
2009,02,25,11,34,46.00
2009,02,25,11,35,46.50
2009,02,25,11,36,46.50
2009,02,25,11,37,46.00
2009,02,25,11,38,46.70
2009,02,25,11,39,51.50
2009,02,25,11,40,62.10
2009,02,25,11,41,72.00
2009,02,25,11,42,77.80
2009,02,25,11,43,79.00
2009,02,25,11,44,76.30
2009,02,25,11,45,70.30
2009,02,25,11,46,70.00
2009,02,25,11,47,65.00
2009,02,25,11,48,69.00
2009,02,25,11,49,68.60
2009,02,25,11,50,64.70
2009,02,25,11,51,62.80
2009,02,25,11,52,61.60
2009,02,25,11,53,59.50
2009,02,25,11,54,58.00
2009,02,25,11,55,56.40
2009,02,25,11,56,54.80
2009,02,25,11,57,57.90
2009,02,25,11,58,60.00
2009,02,25,11,59,61.50
2009,02,25,12,00,66.30
2009,02,25,12,01,70.90
2009,02,25,12,02,72.00
2009,02,25,12,03,70.50
2009,02,25,12,04,63.70
2009,02,25,12,05,58.70
2009,02,25,12,06,61.20
2009,02,25,12,07,62.80
2009,02,25,12,08,60.20
2009,02,25,12,09,58.00
2009,02,25,12,10,58.00
2009,02,25,12,11,60.20
2009,02,25,12,12,63.90
2009,02,25,12,13,70.60
2009,02,25,12,14,80.00
2009,02,25,12,15,84.00
2009,02,25,12,16,82.50
2009,02,25,12,17,79.00
2009,02,25,12,18,77.90
2009,02,25,12,19,73.10
2009,02,25,12,20,66.20
2009,02,25,12,21,62.50
2009,02,25,12,22,59.00
2009,02,25,12,23,56.00
2009,02,25,12,24,56.00
2009,02,25,12,25,57.40
2009,02,25,12,26,58.00
2009,02,25,12,27,59.40
2009,02,25,12,28,60.00
2009,02,25,12,29,60.00
2009,02,25,12,30,65.90
2009,02,25,12,31,63.40
2009,02,25,12,32,63.00
2009,02,25,12,33,63.00
2009,02,25,12,34,67.10
2009,02,25,12,35,70.00
2009,02,25,12,36,78.50
2009,02,25,12,37,95.20
2009,02,25,12,38,116.30
2009,02,25,12,39,148.20
2009,02,25,12,40,213.80
2009,02,25,12,41,308.30
2009,02,25,12,42,354.80
2009,02,25,12,43,356.70
2009,02,25,12,44,398.90
2009,02,25,12,45,470.60
2009,02,25,12,46,506.00
2009,02,25,12,47,317.20
2009,02,25,12,48,213.20
2009,02,25,12,49,238.80
2009,02,25,12,50,241.20
2009,02,25,12,51,278.70
2009,02,25,12,52,310.20
2009,02,25,12,53,283.70
2009,02,25,12,54,294.10
2009,02,25,12,55,325.00
2009,02,25,12,56,325.00
2009,02,25,12,57,339.00
2009,02,25,12,58,576.00
2009,02,25,12,59,491.20
2009,02,25,13,00,464.00
2009,02,25,13,01,423.60
2009,02,25,13,02,246.50
2009,02,25,13,03,214.10
2009,02,25,13,04,216.00
2009,02,25,13,05,251.80
2009,02,25,13,06,291.20
2009,02,25,13,07,304.50
2009,02,25,13,08,321.90
2009,02,25,13,09,307.20
2009,02,25,13,10,338.60
2009,02,25,13,11,354.50
2009,02,25,13,12,311.50
2009,02,25,13,13,297.00
2009,02,25,13,14,297.00
2009,02,25,13,15,436.60
2009,02,25,13,16,448.90
2009,02,25,13,17,478.30
2009,02,25,13,18,552.90
2009,02,25,13,19,561.00
2009,02,25,13,20,553.70
2009,02,25,13,21,547.50
2009,02,25,13,22,541.90
2009,02,25,13,23,536.00
2009,02,25,13,24,533.80
2009,02,25,13,25,527.60
2009,02,25,13,26,525.30
2009,02,25,13,27,521.60
2009,02,25,13,28,496.10
2009,02,25,13,29,458.00
2009,02,25,13,30,461.50
2009,02,25,13,31,471.30
2009,02,25,13,32,481.00
2009,02,25,13,33,485.70
2009,02,25,13,34,496.60
2009,02,25,13,35,501.00
2009,02,25,13,36,501.00
2009,02,25,13,37,493.40
2009,02,25,13,38,532.00
2009,02,25,13,39,534.90
2009,02,25,13,40,531.20
2009,02,25,13,41,526.50
2009,02,25,13,42,516.50
2009,02,25,13,43,506.70
2009,02,25,13,44,490.70
2009,02,25,13,45,445.80
2009,02,25,13,46,440.60
2009,02,25,13,47,435.60
2009,02,25,13,48,476.60
2009,02,25,13,49,496.40
2009,02,25,13,50,481.70
2009,02,25,13,51,428.60
2009,02,25,13,52,365.80
2009,02,25,13,53,334.70
2009,02,25,13,54,352.40
2009,02,25,13,55,433.30
2009,02,25,13,56,423.80
2009,02,25,13,57,359.10
2009,02,25,13,58,351.80
2009,02,25,13,59,338.40
2009,02,25,14,00,334.00
2009,02,25,14,01,334.00
2009,02,25,14,02,474.20
2009,02,25,14,03,477.10
2009,02,25,14,04,517.00
2009,02,25,14,05,504.60
2009,02,25,14,06,503.80
2009,02,25,14,07,497.20
2009,02,25,14,08,481.00
2009,02,25,14,09,468.80
2009,02,25,14,10,463.50
2009,02,25,14,11,443.40
2009,02,25,14,12,419.00
2009,02,25,14,13,376.20
2009,02,25,14,14,314.20
2009,02,25,14,15,273.30
2009,02,25,14,16,255.50
2009,02,25,14,17,237.90
2009,02,25,14,18,224.70
2009,02,25,14,19,217.50
2009,02,25,14,20,202.90
2009,02,25,14,21,193.40
2009,02,25,14,22,190.60
2009,02,25,14,23,192.20
2009,02,25,14,24,187.10
2009,02,25,14,25,192.30
2009,02,25,14,26,206.30
2009,02,25,14,27,209.00
2009,02,25,14,28,211.00
2009,02,25,14,29,209.40
2009,02,25,14,30,179.30
2009,02,25,14,31,163.50
2009,02,25,14,32,155.80
2009,02,25,14,33,155.00
2009,02,25,14,34,155.00
2009,02,25,14,35,158.80
2009,02,25,14,36,168.80
2009,02,25,14,37,167.80
2009,02,25,14,38,155.60
2009,02,25,14,39,144.80
2009,02,25,14,40,133.50
2009,02,25,14,41,119.00
2009,02,25,14,42,110.50
2009,02,25,14,43,110.40
2009,02,25,14,44,118.40
2009,02,25,14,45,122.60
2009,02,25,14,46,117.20
2009,02,25,14,47,113.60
2009,02,25,14,48,113.90
2009,02,25,14,49,114.00
2009,02,25,14,50,109.00
2009,02,25,14,51,107.10
2009,02,25,14,52,109.10
2009,02,25,14,53,111.00
2009,02,25,14,54,110.10
2009,02,25,14,55,103.90
2009,02,25,14,56,99.20
2009,02,25,14,57,97.30
2009,02,25,14,58,98.00
2009,02,25,14,59,100.20
2009,02,25,15,00,108.20
2009,02,25,15,01,116.80
2009,02,25,15,02,120.50
2009,02,25,15,03,121.00
2009,02,25,15,04,117.90
2009,02,25,15,05,111.60
2009,02,25,15,06,104.20
2009,02,25,15,07,92.70
2009,02,25,15,08,76.90
2009,02,25,15,09,56.50
2009,02,25,15,10,57.00
2009,02,25,15,11,66.10
2009,02,25,15,12,69.80
2009,02,25,15,13,76.30
2009,02,25,15,14,77.00
2009,02,25,15,15,71.70
2009,02,25,15,16,67.20
2009,02,25,15,17,70.90
2009,02,25,15,18,84.60
2009,02,25,15,19,101.40
2009,02,25,15,20,112.60
2009,02,25,15,21,116.60
2009,02,25,15,22,118.70
2009,02,25,15,23,121.30
2009,02,25,15,24,125.40
2009,02,25,15,25,130.70
2009,02,25,15,26,134.00
2009,02,25,15,27,134.00
2009,02,25,15,28,132.70
2009,02,25,15,29,133.40
2009,02,25,15,30,134.70
2009,02,25,15,31,138.20
2009,02,25,15,32,144.50
2009,02,25,15,33,153.60
2009,02,25,15,34,155.90
2009,02,25,15,35,155.10
2009,02,25,15,36,151.00
2009,02,25,15,37,143.90
2009,02,25,15,38,133.50
2009,02,25,15,39,124.10
2009,02,25,15,40,115.20
2009,02,25,15,41,110.00
2009,02,25,15,42,104.20
2009,02,25,15,43,102.00
2009,02,25,15,44,102.60
2009,02,25,15,45,104.30
2009,02,25,15,46,105.00
2009,02,25,15,47,105.00
2009,02,25,15,48,105.00
2009,02,25,15,49,104.50
2009,02,25,15,50,104.00
2009,02,25,15,51,104.60
2009,02,25,15,52,106.30
2009,02,25,15,53,105.60
2009,02,25,15,54,106.40
2009,02,25,15,55,107.00
2009,02,25,15,56,108.70
2009,02,25,15,57,109.00
2009,02,25,15,58,107.10
2009,02,25,15,59,104.00
2009,02,25,16,00,99.80
2009,02,25,16,01,96.90
2009,02,25,16,02,95.00
2009,02,25,16,03,95.20
2009,02,25,16,04,98.00
2009,02,25,16,05,102.50
2009,02,25,16,06,106.80
2009,02,25,16,07,117.90
2009,02,25,16,08,129.70
2009,02,25,16,09,140.20
2009,02,25,16,10,147.10
2009,02,25,16,11,146.00
2009,02,25,16,12,147.70
2009,02,25,16,13,141.30
2009,02,25,16,14,137.40
2009,02,25,16,15,136.30
2009,02,25,16,16,134.30
2009,02,25,16,17,131.20
2009,02,25,16,18,125.80
2009,02,25,16,19,121.00
2009,02,25,16,20,113.70
2009,02,25,16,21,105.40
2009,02,25,16,22,104.00
2009,02,25,16,23,107.00
2009,02,25,16,24,107.00
2009,02,25,16,25,107.20
2009,02,25,16,26,109.00
2009,02,25,16,27,108.70
2009,02,25,16,28,107.00
2009,02,25,16,29,106.40
2009,02,25,16,30,103.50
2009,02,25,16,31,99.30
2009,02,25,16,32,96.80
2009,02,25,16,33,92.80
2009,02,25,16,34,86.80
2009,02,25,16,35,82.40
2009,02,25,16,36,76.70
2009,02,25,16,37,79.40
2009,02,25,16,38,83.70
2009,02,25,16,39,84.00
2009,02,25,16,40,83.30
2009,02,25,16,41,83.00
2009,02,25,16,42,81.30
2009,02,25,16,43,79.20
2009,02,25,16,44,79.00
2009,02,25,16,45,79.00
2009,02,25,16,46,79.00
2009,02,25,16,47,81.10
2009,02,25,16,48,84.00
2009,02,25,16,49,84.00
2009,02,25,16,50,84.00
2009,02,25,16,51,83.40
2009,02,25,16,52,80.40
2009,02,25,16,53,77.50
2009,02,25,16,54,72.30
2009,02,25,16,55,66.60
2009,02,25,16,56,60.60
2009,02,25,16,57,55.90
2009,02,25,16,58,53.50
2009,02,25,16,59,51.90
2009,02,25,17,00,51.00
2009,02,25,17,01,51.00
2009,02,25,17,02,51.00
2009,02,25,17,03,51.00
2009,02,25,17,04,49.40
2009,02,25,17,05,47.40
2009,02,25,17,06,46.20
2009,02,25,17,07,42.20
2009,02,25,17,08,40.20
2009,02,25,17,09,40.00
2009,02,25,17,10,36.90
2009,02,25,17,11,34.80
2009,02,25,17,12,33.00
2009,02,25,17,13,33.00
2009,02,25,17,14,32.70
2009,02,25,17,15,32.00
2009,02,25,17,16,32.00
2009,02,25,17,17,32.00
2009,02,25,17,18,32.40
2009,02,25,17,19,33.00
2009,02,25,17,20,33.00
2009,02,25,17,21,34.00
2009,02,25,17,22,35.00
2009,02,25,17,23,35.00
2009,02,25,17,24,35.00
2009,02,25,17,25,35.00
2009,02,25,17,26,35.00
2009,02,25,17,27,35.00
2009,02,25,17,28,35.00
2009,02,25,17,29,32.50
2009,02,25,17,30,30.10
2009,02,25,17,31,28.20
2009,02,25,17,32,26.00
2009,02,25,17,33,22.90
2009,02,25,17,34,20.70
2009,02,25,17,35,17.80
2009,02,25,17,36,15.60
2009,02,25,17,37,13.50
2009,02,25,17,38,12.00
2009,02,25,17,39,11.70
2009,02,25,17,40,11.00
2009,02,25,17,41,11.00
2009,02,25,17,42,10.10
2009,02,25,17,43,9.00
2009,02,25,17,44,9.00
2009,02,25,17,45,9.00
2009,02,25,17,46,7.90
2009,02,25,17,47,7.00
2009,02,25,17,48,7.00
2009,02,25,17,49,7.00
2009,02,25,17,50,7.00
2009,02,25,17,51,5.30
2009,02,25,17,52,5.00
2009,02,25,17,53,5.00
2009,02,25,17,54,5.00
2009,02,25,17,55,0.00
2009,02,25,17,56,0.00
2009,02,25,17,57,0.00
2009,02,25,17,58,0.00
2009,02,25,17,59,0.00
2009,02,25,18,00,0.00
2009,02,25,18,01,0.00
2009,02,25,18,02,0.00
2009,02,25,18,03,0.00
2009,02,25,18,04,0.00
2009,02,25,18,05,0.00
2009,02,25,18,06,0.00
2009,02,25,18,07,0.00
2009,02,25,18,08,0.00
2009,02,25,18,09,0.00
2009,02,25,18,10,0.00
2009,02,25,18,11,0.00
2009,02,25,18,12,0.00
2009,02,25,18,13,0.00
2009,02,25,18,14,0.00
2009,02,25,18,15,0.00
2009,02,25,18,16,0.00
2009,02,25,18,17,0.00
2009,02,25,18,18,0.00
2009,02,25,18,19,0.00